sat.trackr.live / text

‹ back to catalog

STARLINK-4027

NORAD 52601 · 2022-052D

PAYLOAD ACTIVE UNKNOWN

§ Identity

Operator
Country
US
Launch date
2022-05-14
Launch site
AFETR
Launch vehicle
Mass (kg)
RCS (m²)

Purposes: comms

External: N2YO · Heavens-Above · Gunter

§ Orbital elements

Epoch: 2026-09-20T03:46:26.254848Z

Period
93.79 min
Inclination
53.1613°
Eccentricity
0.0001308
Mean motion
15.35415967 rev/d
Perigee alt
458.8 km
Apogee alt
460.6 km
Semi-major
6,837.8 km
B*
8.0132e-5
RAAN
117.1529°
Arg perigee
70.3063°
Mean anomaly
289.8081°
Rev number
24,113

§ Raw data

STARLINK-40271 52601U 22052D   26263.15724832  .00002417  00000+0  80132-4 0  99972 52601  53.1613 117.1529 0001308  70.3063 289.8081 15.35415967241135

JSON: /api/v1/satellites/52601 · /tle

For live sub-satellite position, see the globe view (requires WebGL).

§ Visibility from observer

Set your observer location to see the next 7 days of passes ≥ 10°. The values pass through the URL so the page stays shareable.

No JS? Fill the form by hand. The geolocation button needs JavaScript.